Dades meteomassalio
Diari Summary for Maig 23, 2017 Units:  Metric    English   Both
« Previous Day
Next Day »
Diari Semanal Mensual Anual Personalitzat
  Maxima: Minima: Mijana:
Temperatura: -17.8 °C -10.7 °C -5.7 °C
Rosada: -17.8 °C -12.1 °C -11.1 °C
Humitat: Humidity % 35 % 57 %
Velocitat del vent: 0 km/h 0 km/h 10.8 km/h
Racha vent: 0 km/h - -
Vent:- - SSE
Pressio: 0 hPa 34418.7 hPa -
Pluja: 0 mm    
Historical Graphs
 
 
Tabular Data for Maig 23, 2017
Time Temperature Dew Point Pressure Wind Wind Speed Wind Gust Humidity Rainfall Rate (Hourly) solar Conditions
-17.8 °C -17.8 °C 0 hPa Calm     Humidity % 0 mm SolarRadiationWatts/m^2 W/m2 Conditions
00:03 -7.4 °C -10.9 °C 34418.7 hPa Calm     67 % 0 mm 0.0 W/m2 CLR
00:08 -7.6 °C -10.9 °C 34428.8 hPa Calm     68 % 0 mm 0.0 W/m2 CLR
00:13 -7.6 °C -10.8 °C 34428.8 hPa East 9 km/h 9 km/h 69 % 0 mm 0.0 W/m2 CLR
00:18 -7.7 °C -10.7 °C 34428.8 hPa Calm     70 % 0 mm 0.0 W/m2 CLR
00:23 -7.7 °C -10.7 °C 34428.8 hPa Calm     70 % 0 mm 0.0 W/m2 CLR
00:28 -7.7 °C -10.6 °C 34428.8 hPa Calm     71 % 0 mm 0.0 W/m2 CLR
00:33 -7.7 °C -10.7 °C 34428.8 hPa Calm     71 % 0 mm 0.0 W/m2 CLR
00:38 -7.7 °C -10.5 °C 34428.8 hPa Calm     72 % 0 mm 0.0 W/m2 CLR
00:43 -7.7 °C -10.6 °C 34442.4 hPa ENE 11.9 km/h 11.9 km/h 72 % 0 mm 0.0 W/m2 CLR
00:48 -7.8 °C -10.6 °C 34442.4 hPa Calm     72 % 0 mm 0.0 W/m2 CLR
00:53 -7.8 °C -10.6 °C 34442.4 hPa Calm     73 % 0 mm 0.0 W/m2 CLR
00:58 -7.9 °C -10.6 °C 34442.4 hPa Calm     73 % 0 mm 0.0 W/m2 CLR
01:03 -7.9 °C -10.7 °C 34442.4 hPa Calm     73 % 0 mm 0.0 W/m2 CLR
01:08 -8.1 °C -10.8 °C 34428.8 hPa Calm     73 % 0 mm 0.0 W/m2 CLR
01:13 -8.2 °C -10.7 °C 34428.8 hPa Calm     75 % 0 mm 0.0 W/m2 CLR
01:18 -8.2 °C -10.7 °C 34442.4 hPa Calm     75 % 0 mm 0.0 W/m2 CLR
01:23 -8.2 °C -10.7 °C 34442.4 hPa Calm     75 % 0 mm 0.0 W/m2 CLR
01:28 -8.3 °C -10.7 °C 34442.4 hPa Calm     76 % 0 mm 0.0 W/m2 CLR
01:33 -8.3 °C -10.7 °C 34452.6 hPa Calm     76 % 0 mm 0.0 W/m2 CLR
01:38 -8.3 °C -10.7 °C 34452.6 hPa Calm     76 % 0 mm 0.0 W/m2 CLR
01:43 -8.4 °C -10.8 °C 34452.6 hPa Calm     76 % 0 mm 0.0 W/m2 CLR
01:48 -8.5 °C -10.9 °C 34452.6 hPa Calm     76 % 0 mm 0.0 W/m2 CLR
01:53 -8.6 °C -10.9 °C 34452.6 hPa Calm     76 % 0 mm 0.0 W/m2 CLR
01:58 -8.7 °C -11.1 °C 34452.6 hPa Calm     76 % 0 mm 0.0 W/m2 CLR
02:03 -8.8 °C -11.2 °C 34442.4 hPa WSW 5.1 km/h 5.1 km/h 76 % 0 mm 0.0 W/m2 CLR
02:08 -8.9 °C -11.2 °C 34442.4 hPa SW 11.9 km/h 11.9 km/h 77 % 0 mm 0.0 W/m2 CLR
02:13 -8.8 °C -11.1 °C 34442.4 hPa Calm     77 % 0 mm 0.0 W/m2 CLR
02:18 -8.8 °C -10.9 °C 34442.4 hPa Calm     78 % 0 mm 0.0 W/m2 CLR
02:23 -8.7 °C -10.8 °C 34442.4 hPa WSW 9 km/h 9 km/h 78 % 0 mm 0.0 W/m2 CLR
02:28 -8.6 °C -10.9 °C 34442.4 hPa WSW 11.9 km/h 11.9 km/h 77 % 0 mm 0.0 W/m2 CLR
02:33 -8.6 °C -10.8 °C 34452.6 hPa WSW 9 km/h 9 km/h 77 % 0 mm 0.0 W/m2 CLR
02:38 -8.6 °C -10.9 °C 34452.6 hPa Calm     76 % 0 mm 0.0 W/m2 CLR
02:43 -8.7 °C -11.2 °C 34452.6 hPa Calm     75 % 0 mm 0.0 W/m2 CLR
02:48 -8.8 °C -11.3 °C 34452.6 hPa Calm     75 % 0 mm 0.0 W/m2 CLR
02:53 -9 °C -11.4 °C 34452.6 hPa Calm     75 % 0 mm 0.0 W/m2 CLR
02:58 -9.1 °C -11.6 °C 34452.6 hPa Calm     75 % 0 mm 0.0 W/m2 CLR
03:03 -9.1 °C -11.5 °C 34452.6 hPa Calm     76 % 0 mm 0.0 W/m2 CLR
03:08 -9.1 °C -11.4 °C 34462.7 hPa Calm     76 % 0 mm 0.0 W/m2 CLR
03:13 -9.1 °C -11.4 °C 34462.7 hPa Calm     76 % 0 mm 0.0 W/m2 CLR
03:18 -9.1 °C -11.4 °C 34462.7 hPa Calm     76 % 0 mm 0.0 W/m2 CLR
03:23 -9.1 °C -11.6 °C 34462.7 hPa Calm     75 % 0 mm 0.0 W/m2 CLR
03:28 -9.1 °C -11.6 °C 34462.7 hPa Calm     75 % 0 mm 0.0 W/m2 CLR
03:33 -9.1 °C -11.5 °C 34462.7 hPa Calm     76 % 0 mm 0.0 W/m2 CLR
03:38 -9.1 °C -11.3 °C 34462.7 hPa Calm     77 % 0 mm 0.0 W/m2 CLR
03:43 -9 °C -11.2 °C 34462.7 hPa West 15 km/h 15 km/h 77 % 0 mm 0.0 W/m2 CLR
03:48 -8.8 °C -11.1 °C 34462.7 hPa WSW 9 km/h 9 km/h 77 % 0 mm 0.0 W/m2 CLR
03:53 -8.8 °C -11.3 °C 34462.7 hPa SW 6 km/h 6 km/h 75 % 0 mm 0.0 W/m2 CLR
03:58 -8.8 °C -11.2 °C 34462.7 hPa WSW 11.9 km/h   76 % 0 mm 0.0 W/m2 CLR
04:03 -8.8 °C -11.2 °C 34462.7 hPa Calm     76 % 0 mm 0.0 W/m2 CLR
04:08 -8.9 °C -11.3 °C 34462.7 hPa West 6 km/h   76 % 0 mm 0.0 W/m2 CLR
04:13 -8.9 °C -11.3 °C 34462.7 hPa Calm     76 % 0 mm 0.0 W/m2 CLR
04:18 -9 °C -11.3 °C 34462.7 hPa Calm     76 % 0 mm 0.0 W/m2 CLR
04:23 -9.1 °C -11.3 °C 34462.7 hPa Calm     77 % 0 mm 0.0 W/m2 CLR
04:29 -9.1 °C -11.3 °C 34476.3 hPa Calm     77 % 0 mm 0.0 W/m2 CLR
04:34 -9.2 °C -11.4 °C 34476.3 hPa Calm     77 % 0 mm 0.0 W/m2 CLR
04:39 -9.2 °C -11.3 °C 34476.3 hPa Calm     78 % 0 mm 0.0 W/m2 CLR
04:44 -9.3 °C -11.4 °C 34476.3 hPa Calm     78 % 0 mm 0.0 W/m2 CLR
04:49 -9.3 °C -11.5 °C 34476.3 hPa Calm     78 % 0 mm 0.0 W/m2 CLR
04:54 -9.4 °C -11.4 °C 34476.3 hPa Calm     79 % 0 mm 0.0 W/m2 CLR
04:59 -9.6 °C -11.4 °C 34476.3 hPa Calm     80 % 0 mm 0.0 W/m2 CLR
05:04 -9.6 °C -11.5 °C 34476.3 hPa Calm     80 % 0 mm 0.0 W/m2 CLR
05:09 -9.6 °C -11.5 °C 34486.4 hPa Calm     80 % 0 mm 0.0 W/m2 CLR
05:14 -9.7 °C -11.4 °C 34486.4 hPa Calm     81 % 0 mm 0.0 W/m2 CLR
05:19 -9.7 °C -11.6 °C 34486.4 hPa Calm     80 % 0 mm 0.0 W/m2 CLR
05:24 -9.8 °C -11.7 °C 34486.4 hPa Calm     80 % 0 mm 0.0 W/m2 CLR
05:29 -9.8 °C -11.6 °C 34486.4 hPa Calm     81 % 0 mm 0.0 W/m2 CLR
05:34 -9.8 °C -11.5 °C 34486.4 hPa Calm     82 % 0 mm 0.0 W/m2 CLR
05:39 -9.9 °C -11.7 °C 34486.4 hPa Calm     81 % 0 mm 0.0 W/m2 CLR
05:44 -9.9 °C -11.8 °C 34486.4 hPa Calm     81 % 0 mm 0.0 W/m2 CLR
05:49 -10.1 °C -11.7 °C 34486.4 hPa Calm     82 % 0 mm 0.0 W/m2 CLR
05:59 -10.2 °C -11.7 °C 34496.6 hPa Calm     83 % 0 mm 0.0 W/m2 CLR
06:04 -10.2 °C -11.8 °C 34496.6 hPa Calm     83 % 0 mm 0.0 W/m2 CLR
06:09 -10.2 °C -11.8 °C 34496.6 hPa Calm     83 % 0 mm 0.0 W/m2 CLR
06:14 -10.3 °C -11.9 °C 34496.6 hPa Calm     83 % 0 mm 0.0 W/m2 CLR
06:19 -10.4 °C -11.9 °C 34496.6 hPa Calm     83 % 0 mm 0.0 W/m2 CLR
06:24 -10.5 °C -12 °C 34496.6 hPa Calm     84 % 0 mm 0.0 W/m2 OVC
06:29 -10.6 °C -12.1 °C 34496.6 hPa Calm     84 % 0 mm 0.0 W/m2 OVC
06:34 -10.6 °C -12 °C 34496.6 hPa Calm     85 % 0 mm 0.0 W/m2 OVC
06:39 -10.7 °C -12 °C 34510.1 hPa Calm     85 % 0 mm 5.0 W/m2 OVC
06:44 -10.7 °C -11.9 °C 34510.1 hPa Calm     86 % 0 mm 9.0 W/m2 BKN
06:49 -10.7 °C -11.9 °C 34510.1 hPa Calm     86 % 0 mm 12.0 W/m2 BKN
06:54 -10.6 °C -11.8 °C 34510.1 hPa Calm     86 % 0 mm 16.0 W/m2 BKN
06:59 -10.6 °C -11.8 °C 34510.1 hPa Calm     86 % 0 mm 19.0 W/m2 BKN
07:04 -10.6 °C -11.8 °C 34510.1 hPa Calm     86 % 0 mm 23.0 W/m2 BKN
07:09 -10.6 °C -11.8 °C 34520.3 hPa Calm     86 % 0 mm 28.0 W/m2 BKN
07:14 -10.5 °C -11.8 °C 34520.3 hPa Calm     85 % 0 mm 35.0 W/m2 BKN
07:19 -10.4 °C -11.8 °C 34520.3 hPa Calm     85 % 0 mm 49.0 W/m2 SCT
07:24 -10.4 °C -11.8 °C 34520.3 hPa Calm     85 % 0 mm 58.0 W/m2 SCT
07:29 -10.3 °C -11.7 °C 34520.3 hPa Calm     85 % 0 mm 67.0 W/m2 FEW
07:34 -10.2 °C -11.6 °C 34520.3 hPa Calm     85 % 0 mm 77.0 W/m2 FEW
07:39 -10.1 °C -11.4 °C 34520.3 hPa Calm     85 % 0 mm 88.0 W/m2 FEW
07:44 -9.9 °C -11.3 °C 34520.3 hPa Calm     84 % 0 mm 102.0 W/m2 CLR
07:49 -9.7 °C -11.3 °C 34520.3 hPa Calm     83 % 0 mm 116.0 W/m2 CLR
07:54 -9.5 °C -11.2 °C 34520.3 hPa Calm     82 % 0 mm 132.0 W/m2 CLR
07:59 -9.3 °C -11.1 °C 34520.3 hPa Calm     81 % 0 mm 149.0 W/m2 CLR
08:04 -9.1 °C -11 °C 34533.8 hPa Calm     80 % 0 mm 165.0 W/m2 CLR
08:09 -8.8 °C -10.9 °C 34533.8 hPa Calm     78 % 0 mm 183.0 W/m2 CLR
08:14 -8.6 °C -10.8 °C 34533.8 hPa Calm     77 % 0 mm 197.0 W/m2 CLR
08:19 -8.3 °C -10.8 °C 34533.8 hPa Calm     75 % 0 mm 216.0 W/m2 CLR
08:24 -8.2 °C -10.7 °C 34533.8 hPa Calm     74 % 0 mm 232.0 W/m2 CLR
08:29 -7.9 °C -10.7 °C 34533.8 hPa Calm     73 % 0 mm 246.0 W/m2 CLR
08:34 -7.7 °C -10.6 °C 34533.8 hPa Calm     72 % 0 mm 260.0 W/m2 CLR
08:39 -7.6 °C -10.6 °C 34533.8 hPa Calm     71 % 0 mm 278.0 W/m2 CLR
08:44 -7.5 °C -10.6 °C 34533.8 hPa WNW 9 km/h 9 km/h 70 % 0 mm 294.0 W/m2 CLR
08:49 -7.4 °C -10.6 °C 34544 hPa NNW 11.9 km/h 11.9 km/h 69 % 0 mm 309.0 W/m2 CLR
08:54 -7.3 °C -10.6 °C 34544 hPa WNW 20.8 km/h 20.8 km/h 69 % 0 mm 323.0 W/m2 CLR
08:59 -7.3 °C -10.7 °C 34544 hPa NW 15.6 km/h 15.6 km/h 68 % 0 mm 339.0 W/m2 CLR
09:04 -7.3 °C -10.6 °C 34544 hPa NNW 9 km/h 9 km/h 68 % 0 mm 355.0 W/m2 CLR
09:09 -7.2 °C -10.7 °C 34544 hPa WNW 15 km/h 15 km/h 67 % 0 mm 373.0 W/m2 CLR
09:14 -7.2 °C -10.7 °C 34544 hPa NNW 17.9 km/h 17.9 km/h 67 % 0 mm 387.0 W/m2 CLR
09:19 -7.1 °C -10.5 °C 34544 hPa NW 18.2 km/h 18.2 km/h 67 % 0 mm 401.0 W/m2 CLR
09:24 -7 °C -10.6 °C 34554.1 hPa WNW 15 km/h 15 km/h 66 % 0 mm 418.0 W/m2 CLR
09:29 -6.9 °C -10.5 °C 34544 hPa NW 15 km/h 15 km/h 66 % 0 mm 434.0 W/m2 CLR
09:34 -6.8 °C -10.6 °C 34554.1 hPa WNW 3.1 km/h   65 % 0 mm 448.0 W/m2 CLR
09:39 -6.8 °C -10.7 °C 34544 hPa SW 10.3 km/h 10.3 km/h 64 % 0 mm 462.0 W/m2 CLR
09:44 -6.7 °C -10.6 °C 34544 hPa West 10.3 km/h 10.3 km/h 64 % 0 mm 476.0 W/m2 CLR
09:49 -6.7 °C -10.6 °C 34554.1 hPa SW 23.8 km/h 23.8 km/h 64 % 0 mm 494.0 W/m2 CLR
09:54 -6.6 °C -10.7 °C 34554.1 hPa WSW 17.9 km/h 17.9 km/h 62 % 0 mm 510.0 W/m2 CLR
09:59 -6.4 °C -10.5 °C 34554.1 hPa West 9 km/h 9 km/h 63 % 0 mm 522.0 W/m2 CLR
10:04 -6.4 °C -10.7 °C 34554.1 hPa West 15 km/h 15 km/h 61 % 0 mm 536.0 W/m2 CLR
10:09 -6.4 °C -10.6 °C 34544 hPa WSW 9 km/h 9 km/h 62 % 0 mm 552.0 W/m2 CLR
10:10 -6.4 °C -10.6 °C 34544 hPa WSW 9 km/h 9 km/h 62 % 0 mm 552.0 W/m2 CLR
10:15 -6.3 °C -10.7 °C 34544 hPa Calm     61 % 0 mm 566.0 W/m2 CLR
10:20 -6.1 °C -10.4 °C 34544 hPa Calm     61 % 0 mm 582.0 W/m2 CLR
10:25 -5.8 °C -10.4 °C 34544 hPa NW 20.9 km/h 20.9 km/h 59 % 0 mm 598.0 W/m2 CLR
10:30 -5.9 °C -10.6 °C 34544 hPa NW 11.9 km/h 11.9 km/h 59 % 0 mm 613.0 W/m2 CLR
10:35 -5.9 °C -10.5 °C 34544 hPa Calm     59 % 0 mm 626.0 W/m2 CLR
10:40 -5.8 °C -10.6 °C 34544 hPa WSW 10.3 km/h 10.3 km/h 58 % 0 mm 640.0 W/m2 CLR
10:45 -5.9 °C -10.8 °C 34544 hPa WSW 9 km/h 9 km/h 57 % 0 mm 656.0 W/m2 CLR
10:50 -5.8 °C -10.7 °C 34544 hPa Calm     57 % 0 mm 670.0 W/m2 CLR
10:55 -5.6 °C -10.9 °C 34544 hPa WSW 11.9 km/h 11.9 km/h 55 % 0 mm 680.0 W/m2 CLR
11:00 -5.5 °C -10.7 °C 34544 hPa Calm     55 % 0 mm 693.0 W/m2 CLR
11:05 -5.4 °C -10.8 °C 34544 hPa WSW 9 km/h 9 km/h 54 % 0 mm 708.0 W/m2 CLR
11:10 -5.3 °C -10.7 °C 34544 hPa Calm     54 % 0 mm 717.0 W/m2 CLR
11:15 -5.2 °C -10.8 °C 34544 hPa SW 17.9 km/h 17.9 km/h 53 % 0 mm 728.0 W/m2 CLR
11:20 -5.2 °C -10.9 °C 34544 hPa SSW 12.9 km/h 12.9 km/h 52 % 0 mm 742.0 W/m2 CLR
11:25 -5.1 °C -10.8 °C 34533.8 hPa Calm     52 % 0 mm 749.0 W/m2 CLR
11:30 -4.9 °C -10.7 °C 34533.8 hPa Calm     52 % 0 mm 759.0 W/m2 CLR
11:35 -4.8 °C -10.8 °C 34533.8 hPa NNW 11.9 km/h   51 % 0 mm 770.0 W/m2 CLR
11:40 -4.8 °C -10.9 °C 34533.8 hPa SW 3.1 km/h   50 % 0 mm 780.0 W/m2 CLR
11:45 -4.6 °C -10.9 °C 34533.8 hPa WNW 11.9 km/h 11.9 km/h 49 % 0 mm 791.0 W/m2 CLR
11:50 -4.6 °C -11.1 °C 34533.8 hPa NW 9 km/h 9 km/h 48 % 0 mm 798.0 W/m2 CLR
11:55 -4.6 °C -11.1 °C 34533.8 hPa NE 9 km/h 9 km/h 48 % 0 mm 805.0 W/m2 CLR
12:00 -4.3 °C -10.9 °C 34533.8 hPa ENE 3.1 km/h 3.1 km/h 48 % 0 mm 819.0 W/m2 CLR
12:05 -4.3 °C -10.9 °C 34533.8 hPa Calm     47 % 0 mm 826.0 W/m2 CLR
12:10 -4.1 °C -10.8 °C 34533.8 hPa West 6 km/h 6 km/h 47 % 0 mm 835.0 W/m2 CLR
12:15 -3.8 °C -10.7 °C 34533.8 hPa NNW 11.9 km/h 11.9 km/h 46 % 0 mm 842.0 W/m2 CLR
12:20 -3.7 °C -10.8 °C 34533.8 hPa Calm     45 % 0 mm 847.0 W/m2 CLR
12:25 -3.5 °C -10.8 °C 34533.8 hPa East 9 km/h 9 km/h 44 % 0 mm 856.0 W/m2 CLR
12:30 -3.6 °C -10.7 °C 34533.8 hPa East 7.7 km/h 7.7 km/h 45 % 0 mm 863.0 W/m2 CLR
12:35 -3.6 °C -10.9 °C 34533.8 hPa ESE 9 km/h 9 km/h 44 % 0 mm 868.0 W/m2 CLR
12:40 -3.7 °C -10.9 °C 34520.3 hPa SE 12.9 km/h 12.9 km/h 44 % 0 mm 875.0 W/m2 CLR
12:45 -3.7 °C -11.2 °C 34520.3 hPa ESE 9 km/h 9 km/h 43 % 0 mm 882.0 W/m2 CLR
12:50 -3.7 °C -11 °C 34520.3 hPa Calm     44 % 0 mm 888.0 W/m2 CLR
12:52 -3.6 °C -10.9 °C 34520.3 hPa Calm     44 % 0 mm 886.0 W/m2 CLR
12:56 -3.6 °C -10.9 °C 34520.3 hPa North 7.7 km/h 7.7 km/h 44 % 0 mm 891.0 W/m2 CLR
13:01 -3.6 °C -11.1 °C 34520.3 hPa Calm     43 % 0 mm 896.0 W/m2 CLR
13:06 -3.4 °C -10.9 °C 34520.3 hPa East 6 km/h 6.9 km/h 43 % 0 mm 900.0 W/m2 CLR
13:11 -3.3 °C -11 °C 34510.1 hPa ESE 2.6 km/h 2.9 km/h 42 % 0 mm 905.0 W/m2 CLR
13:16 -3.2 °C -10.9 °C 34510.1 hPa Calm     42 % 0 mm 907.0 W/m2 CLR
13:21 -2.9 °C -10.7 °C 34510.1 hPa NE 20.9 km/h 20.9 km/h 42 % 0 mm 911.0 W/m2 CLR
13:26 -2.9 °C -11.1 °C 34510.1 hPa North 11.9 km/h 11.9 km/h 40 % 0 mm 912.0 W/m2 CLR
13:31 -2.9 °C -10.7 °C 34510.1 hPa NW 15 km/h 15 km/h 42 % 0 mm 914.0 W/m2 CLR
13:36 -2.8 °C -11 °C 34510.1 hPa SSE 2.6 km/h   40 % 0 mm 914.0 W/m2 CLR
13:41 -2.8 °C -11 °C 34510.1 hPa ESE 10.3 km/h 10.3 km/h 40 % 0 mm 919.0 W/m2 CLR
13:46 -2.6 °C -11 °C 34496.6 hPa NE 17.9 km/h 17.9 km/h 39 % 0 mm 921.0 W/m2 CLR
13:51 -2.6 °C -11 °C 34496.6 hPa Calm     39 % 0 mm 921.0 W/m2 CLR
13:56 -2.6 °C -11.2 °C 34496.6 hPa ENE 15.6 km/h 15.6 km/h 38 % 0 mm 921.0 W/m2 CLR
14:01 -2.5 °C -11.2 °C 34496.6 hPa ENE 20.8 km/h 20.8 km/h 38 % 0 mm 923.0 W/m2 CLR
14:06 -2.4 °C -11.1 °C 34496.6 hPa NW 9 km/h 9 km/h 38 % 0 mm 921.0 W/m2 CLR
14:11 -2.2 °C -10.7 °C 34496.6 hPa WNW 3.1 km/h   39 % 0 mm 921.0 W/m2 CLR
14:16 -2.1 °C -10.7 °C 34486.4 hPa Calm     38 % 0 mm 918.0 W/m2 CLR
14:21 -1.9 °C -10.9 °C 34486.4 hPa NE 2.6 km/h 2.6 km/h 37 % 0 mm 919.0 W/m2 CLR
14:26 -1.8 °C -10.8 °C 34486.4 hPa ESE 9 km/h   37 % 0 mm 907.0 W/m2 CLR
14:31 -1.9 °C -10.6 °C 34486.4 hPa NNE 29.8 km/h 29.8 km/h 38 % 0 mm 912.0 W/m2 CLR
14:36 -1.9 °C -10.6 °C 34486.4 hPa NNE 26.9 km/h 26.9 km/h 38 % 0 mm 914.0 W/m2 CLR
14:41 -1.9 °C -10.6 °C 34486.4 hPa NNE 15 km/h 15 km/h 38 % 0 mm 912.0 W/m2 CLR
14:46 -1.8 °C -10.8 °C 34486.4 hPa SW 6 km/h 6 km/h 37 % 0 mm 911.0 W/m2 CLR
14:51 -1.7 °C -10.7 °C 34486.4 hPa NE 23.8 km/h 23.8 km/h 37 % 0 mm 933.0 W/m2 CLR
14:56 -1.6 °C -10.6 °C 34476.3 hPa NE 26.9 km/h 26.9 km/h 37 % 0 mm 942.0 W/m2 CLR
15:01 -1.5 °C -10.5 °C 34486.4 hPa NE 26.9 km/h 26.9 km/h 37 % 0 mm 912.0 W/m2 CLR
15:06 -1.5 °C -10.7 °C 34476.3 hPa ESE 9 km/h 9 km/h 36 % 0 mm 916.0 W/m2 CLR
15:11 -1.5 °C -11 °C 34476.3 hPa NNE 15 km/h 15 km/h 35 % 0 mm 939.0 W/m2 CLR
15:16 -1.5 °C -10.7 °C 34462.7 hPa South 11.9 km/h 11.9 km/h 36 % 0 mm 951.0 W/m2 CLR
15:21 -1.4 °C -10.9 °C 34462.7 hPa North 11.9 km/h 11.9 km/h 35 % 0 mm 967.0 W/m2 CLR
15:26 -1.2 °C -10.7 °C 34462.7 hPa North 23.8 km/h 23.8 km/h 35 % 0 mm 956.0 W/m2 CLR
15:31 -1.3 °C -10.8 °C 34462.7 hPa North 23.8 km/h 23.8 km/h 35 % 0 mm 223.0 W/m2 CLR
15:36 -1.5 °C -11 °C 34462.7 hPa Calm     35 % 0 mm 190.0 W/m2 CLR
15:41 -1.8 °C -11 °C 34462.7 hPa ESE 15 km/h 15 km/h 36 % 0 mm 991.0 W/m2 CLR
15:46 -1.7 °C -10.7 °C 34462.7 hPa ESE 18.2 km/h 18.2 km/h 37 % 0 mm 963.0 W/m2 CLR
15:51 -1.6 °C -10.8 °C 34462.7 hPa SE 29.8 km/h 29.8 km/h 36 % 0 mm 937.0 W/m2 CLR
15:56 -1.6 °C -10.8 °C 34462.7 hPa ESE 20.9 km/h 20.9 km/h 36 % 0 mm 828.0 W/m2 CLR
16:01 -1.8 °C -10.8 °C 34462.7 hPa ESE 35.7 km/h 35.7 km/h 37 % 0 mm 214.0 W/m2 CLR
16:06 -2 °C -10.9 °C 34462.7 hPa East 25.9 km/h 25.9 km/h 37 % 0 mm 350.0 W/m2 CLR
16:11 -1.9 °C -10.9 °C 34452.6 hPa East 20.9 km/h 20.9 km/h 37 % 0 mm 886.0 W/m2 CLR
16:16 -1.7 °C -10.7 °C 34462.7 hPa ESE 35.7 km/h 35.7 km/h 37 % 0 mm 851.0 W/m2 CLR
16:21 -1.7 °C -10.9 °C 34462.7 hPa SE 20.9 km/h 20.9 km/h 36 % 0 mm 791.0 W/m2 CLR
16:26 -1.6 °C -10.8 °C 34452.6 hPa ENE 18.2 km/h 18.2 km/h 36 % 0 mm 786.0 W/m2 CLR
16:31 -1.6 °C -10.9 °C 34452.6 hPa SE 36.2 km/h 36.2 km/h 36 % 0 mm 766.0 W/m2 CLR
16:32 -1.7 °C -10.9 °C 34452.6 hPa ESE 38.8 km/h 38.8 km/h 36 % 0 mm 770.0 W/m2 CLR
16:37 -1.6 °C -10.8 °C 34452.6 hPa ESE 29.8 km/h 29.8 km/h 36 % 0 mm 758.0 W/m2 CLR
16:42 -1.6 °C -10.8 °C 34452.6 hPa ESE 32.8 km/h 32.8 km/h 36 % 0 mm 749.0 W/m2 CLR
16:47 -1.6 °C -10.8 °C 34452.6 hPa East 17.9 km/h 17.9 km/h 36 % 0 mm 737.0 W/m2 CLR
16:52 -1.6 °C -10.8 °C 34452.6 hPa SE 29.8 km/h 29.8 km/h 36 % 0 mm 733.0 W/m2 CLR
16:57 -1.7 °C -10.9 °C 34452.6 hPa ESE 38.8 km/h 38.8 km/h 36 % 0 mm 742.0 W/m2 CLR
17:02 -1.8 °C -10.8 °C 34462.7 hPa SE 26.9 km/h 26.9 km/h 37 % 0 mm 733.0 W/m2 CLR
17:07 -1.9 °C -10.8 °C 34452.6 hPa ESE 9 km/h 9 km/h 37 % 0 mm 712.0 W/m2 CLR
17:12 -1.8 °C -10.7 °C 34452.6 hPa ENE 20.9 km/h 20.9 km/h 37 % 0 mm 703.0 W/m2 CLR
17:17 -1.7 °C -10.7 °C 34452.6 hPa SE 29.8 km/h 29.8 km/h 37 % 0 mm 682.0 W/m2 CLR
17:22 -1.7 °C -10.7 °C 34452.6 hPa South 23.8 km/h 23.8 km/h 37 % 0 mm 668.0 W/m2 CLR
17:27 -1.8 °C -10.8 °C 34452.6 hPa SSE 32.8 km/h 32.8 km/h 37 % 0 mm 636.0 W/m2 CLR
17:32 -1.8 °C -10.8 °C 34452.6 hPa ESE 20.8 km/h 20.8 km/h 37 % 0 mm 619.0 W/m2 CLR
17:37 -1.8 °C -10.8 °C 34452.6 hPa ENE 17.9 km/h 17.9 km/h 37 % 0 mm 599.0 W/m2 CLR
17:42 -1.8 °C -10.8 °C 34452.6 hPa SE 33.6 km/h 33.6 km/h 37 % 0 mm 608.0 W/m2 CLR
17:47 -1.7 °C -10.7 °C 34452.6 hPa SE 29.8 km/h 29.8 km/h 37 % 0 mm 638.0 W/m2 CLR
17:52 -1.7 °C -10.7 °C 34452.6 hPa SE 29.8 km/h 29.8 km/h 37 % 0 mm 615.0 W/m2 CLR
17:57 -1.9 °C -10.8 °C 34452.6 hPa SSE 29.8 km/h 29.8 km/h 37 % 0 mm 497.0 W/m2 CLR
18:02 -1.8 °C -10.8 °C 34452.6 hPa SSE 26.9 km/h 26.9 km/h 37 % 0 mm 533.0 W/m2 CLR
18:07 -1.9 °C -10.9 °C 34452.6 hPa SE 38.8 km/h 38.8 km/h 37 % 0 mm 512.0 W/m2 CLR
18:12 -2.1 °C -11.1 °C 34452.6 hPa ESE 29.8 km/h 29.8 km/h 37 % 0 mm 496.0 W/m2 CLR
18:17 -2.1 °C -10.8 °C 34452.6 hPa SE 32.8 km/h 32.8 km/h 38 % 0 mm 473.0 W/m2 CLR
18:22 -2.2 °C -10.9 °C 34452.6 hPa ESE 17.9 km/h 17.9 km/h 38 % 0 mm 455.0 W/m2 CLR
18:23 -2.2 °C -10.9 °C 34452.6 hPa ESE 26.9 km/h 26.9 km/h 38 % 0 mm 452.0 W/m2 CLR
18:28 -2.2 °C -10.9 °C 34452.6 hPa ESE 35.7 km/h 35.7 km/h 38 % 0 mm 432.0 W/m2 CLR
18:33 -2.3 °C -10.9 °C 34452.6 hPa ESE 26.9 km/h 26.9 km/h 38 % 0 mm 417.0 W/m2 CLR
18:38 -2.3 °C -10.9 °C 34452.6 hPa ESE 44.7 km/h 44.7 km/h 38 % 0 mm 403.0 W/m2 CLR
18:43 -2.3 °C -10.9 °C 34452.6 hPa SE 20.9 km/h 20.9 km/h 38 % 0 mm 383.0 W/m2 CLR
18:48 -2.2 °C -10.9 °C 34452.6 hPa ESE 32.8 km/h 32.8 km/h 38 % 0 mm 371.0 W/m2 CLR
18:53 -2.3 °C -10.9 °C 34452.6 hPa SSE 38.8 km/h 38.8 km/h 38 % 0 mm 353.0 W/m2 CLR
18:58 -2.3 °C -11 °C 34452.6 hPa SE 23.8 km/h 23.8 km/h 38 % 0 mm 336.0 W/m2 CLR
19:03 -2.3 °C -11 °C 34452.6 hPa South 23.3 km/h 23.3 km/h 38 % 0 mm 318.0 W/m2 CLR
19:08 -2.4 °C -11.1 °C 34452.6 hPa South 20.9 km/h 20.9 km/h 38 % 0 mm 304.0 W/m2 CLR
19:13 -2.6 °C -11.2 °C 34452.6 hPa SE 29.8 km/h 29.8 km/h 38 % 0 mm 292.0 W/m2 CLR
19:18 -2.6 °C -11.2 °C 34442.4 hPa SSE 29.8 km/h 29.8 km/h 38 % 0 mm 272.0 W/m2 CLR
19:23 -2.6 °C -11.2 °C 34452.6 hPa SSE 29.8 km/h 29.8 km/h 38 % 0 mm 262.0 W/m2 CLR
19:28 -2.6 °C -11.1 °C 34452.6 hPa SE 29.8 km/h 29.8 km/h 39 % 0 mm 246.0 W/m2 CLR
19:33 -2.6 °C -11.1 °C 34452.6 hPa SE 23.8 km/h 23.8 km/h 39 % 0 mm 232.0 W/m2 CLR
19:38 -2.7 °C -11.1 °C 34452.6 hPa SE 17.9 km/h 17.9 km/h 39 % 0 mm 211.0 W/m2 CLR
19:43 -2.7 °C -11.1 °C 34452.6 hPa SE 32.8 km/h 32.8 km/h 39 % 0 mm 193.0 W/m2 CLR
19:48 -2.8 °C -11.2 °C 34452.6 hPa SE 29.8 km/h 29.8 km/h 39 % 0 mm 178.0 W/m2 CLR
19:49 -2.8 °C -11.2 °C 34452.6 hPa SE 29.8 km/h 29.8 km/h 39 % 0 mm 178.0 W/m2 CLR
19:54 -2.7 °C -11.2 °C 34452.6 hPa SE 20.9 km/h 20.9 km/h 39 % 0 mm 162.0 W/m2 CLR
19:59 -2.7 °C -11.2 °C 34452.6 hPa SE 26.9 km/h 26.9 km/h 39 % 0 mm 146.0 W/m2 CLR
20:04 -2.8 °C -11 °C 34452.6 hPa SE 26.9 km/h 26.9 km/h 40 % 0 mm 130.0 W/m2 CLR
20:09 -2.9 °C -11.1 °C 34452.6 hPa SE 23.8 km/h 23.8 km/h 40 % 0 mm 114.0 W/m2 CLR
20:14 -3 °C -11.2 °C 34452.6 hPa SE 29.8 km/h 29.8 km/h 40 % 0 mm 100.0 W/m2 CLR
20:19 -3 °C -11.2 °C 34452.6 hPa SE 18.2 km/h 18.2 km/h 40 % 0 mm 83.0 W/m2 FEW
20:24 -3.1 °C -11 °C 34452.6 hPa SSE 23.8 km/h 23.8 km/h 41 % 0 mm 70.0 W/m2 FEW
20:29 -3.1 °C -11.1 °C 34462.7 hPa SE 23.8 km/h 23.8 km/h 41 % 0 mm 58.0 W/m2 SCT
20:34 -3.2 °C -11.1 °C 34462.7 hPa SE 23.8 km/h 23.8 km/h 41 % 0 mm 49.0 W/m2 SCT
20:39 -3.3 °C -11 °C 34462.7 hPa SE 20.9 km/h 20.9 km/h 42 % 0 mm 37.0 W/m2 BKN
20:44 -3.4 °C -11.1 °C 34462.7 hPa SE 20.9 km/h 20.9 km/h 42 % 0 mm 30.0 W/m2 BKN
20:49 -3.4 °C -11.2 °C 34476.3 hPa ESE 11.9 km/h 11.9 km/h 42 % 0 mm 23.0 W/m2 BKN
20:54 -3.6 °C -11.1 °C 34476.3 hPa SE 20.9 km/h 20.9 km/h 43 % 0 mm 18.0 W/m2 BKN
20:59 -3.7 °C -11.2 °C 34476.3 hPa SE 17.9 km/h 17.9 km/h 43 % 0 mm 16.0 W/m2 BKN
21:04 -3.7 °C -11.2 °C 34476.3 hPa SE 20.9 km/h 20.9 km/h 43 % 0 mm 12.0 W/m2 BKN
21:09 -3.8 °C -11.1 °C 34476.3 hPa SE 23.8 km/h 23.8 km/h 44 % 0 mm 9.0 W/m2 BKN
21:14 -3.8 °C -11.2 °C 34476.3 hPa SE 15 km/h 15 km/h 44 % 0 mm 7.0 W/m2 BKN
21:19 -3.9 °C -11.2 °C 34476.3 hPa SE 17.9 km/h 17.9 km/h 44 % 0 mm 5.0 W/m2 OVC
21:24 -4.1 °C -11.1 °C 34476.3 hPa SE 11.9 km/h 11.9 km/h 45 % 0 mm 0.0 W/m2 OVC
21:29 -4.1 °C -11.2 °C 34476.3 hPa SSE 11.9 km/h 11.9 km/h 45 % 0 mm 0.0 W/m2 CLR
21:34 -4.2 °C -11.3 °C 34486.4 hPa SE 20.9 km/h 20.9 km/h 45 % 0 mm 0.0 W/m2 CLR
21:39 -4.3 °C -11.3 °C 34486.4 hPa SE 23.8 km/h 23.8 km/h 45 % 0 mm 0.0 W/m2 CLR
21:44 -4.4 °C -11.3 °C 34486.4 hPa SSE 23.8 km/h 23.8 km/h 46 % 0 mm 0.0 W/m2 CLR
21:49 -4.5 °C -11.3 °C 34486.4 hPa SE 23.8 km/h 23.8 km/h 46 % 0 mm 0.0 W/m2 CLR
21:54 -4.6 °C -11.4 °C 34486.4 hPa SSE 23.8 km/h 23.8 km/h 46 % 0 mm 0.0 W/m2 CLR
21:59 -4.7 °C -11.3 °C 34496.6 hPa SSE 18.2 km/h 18.2 km/h 47 % 0 mm 0.0 W/m2 CLR
22:04 -4.8 °C -11.4 °C 34496.6 hPa SE 9 km/h 9 km/h 47 % 0 mm 0.0 W/m2 CLR
22:09 -4.9 °C -11.5 °C 34496.6 hPa SE 23.8 km/h 23.8 km/h 47 % 0 mm 0.0 W/m2 CLR
22:14 -4.9 °C -11.4 °C 34496.6 hPa SE 7.7 km/h 7.7 km/h 48 % 0 mm 0.0 W/m2 CLR
22:19 -5 °C -11.4 °C 34496.6 hPa SE 11.9 km/h 11.9 km/h 48 % 0 mm 0.0 W/m2 CLR
22:24 -5.1 °C -11.5 °C 34510.1 hPa SSE 20.8 km/h 20.8 km/h 48 % 0 mm 0.0 W/m2 CLR
22:29 -5.1 °C -11.5 °C 34510.1 hPa SSE 17.9 km/h 17.9 km/h 48 % 0 mm 0.0 W/m2 CLR
22:34 -5.1 °C -11.4 °C 34510.1 hPa SSE 9 km/h 9 km/h 49 % 0 mm 0.0 W/m2 CLR
22:39 -5.2 °C -11.4 °C 34510.1 hPa ESE 11.9 km/h 11.9 km/h 49 % 0 mm 0.0 W/m2 CLR
22:44 -5.2 °C -11.5 °C 34510.1 hPa SE 11.9 km/h 11.9 km/h 49 % 0 mm 0.0 W/m2 CLR
22:49 -5.2 °C -11.5 °C 34510.1 hPa Calm     49 % 0 mm 0.0 W/m2 CLR
22:54 -5.3 °C -11.6 °C 34510.1 hPa Calm     49 % 0 mm 0.0 W/m2 CLR
22:59 -5.4 °C -11.6 °C 34510.1 hPa Calm     49 % 0 mm 0.0 W/m2 CLR
23:04 -5.4 °C -11.5 °C 34520.3 hPa Calm     50 % 0 mm 0.0 W/m2 CLR
23:09 -5.6 °C -11.4 °C 34520.3 hPa Calm     51 % 0 mm 0.0 W/m2 CLR
23:14 -5.7 °C -11.6 °C 34520.3 hPa Calm     51 % 0 mm 0.0 W/m2 CLR
23:19 -5.8 °C -11.5 °C 34520.3 hPa Calm     52 % 0 mm 0.0 W/m2 CLR
23:24 -5.8 °C -11.6 °C 34520.3 hPa Calm     52 % 0 mm 0.0 W/m2 CLR
23:29 -5.9 °C -11.6 °C 34520.3 hPa Calm     52 % 0 mm 0.0 W/m2 CLR
23:34 -5.9 °C -11.5 °C 34520.3 hPa WSW 2.6 km/h 2.6 km/h 53 % 0 mm 0.0 W/m2 CLR
23:39 -5.9 °C -11.5 °C 34520.3 hPa SW 9 km/h 9 km/h 53 % 0 mm 0.0 W/m2 CLR
23:44 -5.9 °C -11.5 °C 34520.3 hPa Calm     53 % 0 mm 0.0 W/m2 CLR
23:49 -6 °C -11.3 °C 34520.3 hPa Calm     54 % 0 mm 0.0 W/m2 CLR
23:54 -6.2 °C -11.6 °C 34520.3 hPa Calm     54 % 0 mm 0.0 W/m2 CLR
23:59 -6.3 °C -11.6 °C 34520.3 hPa Calm     55 % 0 mm 0.0 W/m2 CLR
Lo Temps de Massalio
Compliments of Weather Underground - 1.25 mb